Weather History for Osceola, WI

Change the Weather History Date:

Wednesday, February 20, 2013

  Actual Average (KMSP) Record (KMSP)
Temperature  
Mean Temperature -16 °C -5 °C  
Max Temperature -9 °C -1 °C 13 °C (1981)
Min Temperature -23 °C -9 °C -28 °C (1941)
Degree Days  
Heating Degree Days 62 42  
Month to date heating degree days 912  
Since 1 July heating degree days 5466  
Cooling Degree Days 0 0  
Month to date cooling degree days 0  
Year to date cooling degree days 0  
Moisture  
Dew Point -19 °C    
Average Humidity 70    
Maximum Humidity 92    
Minimum Humidity 57    
Precipitation  
Precipitation 0.00 mm 0.76 mm 2.16 mm (2011)
Month to date precipitation 0.48  
Year to date precipitation 1.38  
Snow  
Snow 0.00 cm 0.76 cm 29.97 cm (2011)
Month to date snowfall 5.3  
Since 1 July snowfall 39.3  
Snow Depth -    
Sea Level Pressure  
Sea Level Pressure 1030 hPa    
Wind  
Wind Speed 5 km/h (NW)    
Max Wind Speed 11 km/h    
Max Gust Speed -    
Visibility 16 kilometers    
Events      
T = Trace of Precipitation, MM = Missing Value Source: NWS Daily Summary

Daily Weather History Graph

Daily Weather History Graph

Search for Another Location

Airport:

Trip Planner

Search our weather history database for the weather conditions in past years. The results will help you decide how hot, cold, wet, or windy it might be!

Date:

Astronomy

Feb. 20, 2013 Rise Set
Actual Time 7:03 AM CST 5:45 PM CST
Civil Twilight 6:33 AM CST 6:15 PM CST
Nautical Twilight 5:59 AM CST 6:50 PM CST
Astronomical Twilight 5:25 AM CST 7:24 PM CST
Moon 12:59 PM CST (2/20) 3:33 AM CST (2/20)
Length of Visible Light 11h 42m
Length of Day
10h 42m
Waxing Gibbous, 76% of the Moon is Illuminated
Feb 20
Waxing Gibbous
Feb 25
Full
Mar 4
Last Quarter
Mar 11
New
Mar 19
First Quarter

Hourly Weather History & Observations

Time (CST) Temp. Windchill Dew Point Humidity Pressure Visibility Wind Dir Wind Speed Gust Speed Precip Events Conditions
12:15 AM -17.0 °C -22.4 °C -22.0 °C 66% 1027.7 hPa 16.1 km NNW 7.4 km/h / 2.1 m/s - N/A   Clear
12:35 AM -18.0 °C -22.4 °C -22.0 °C 72% 1028.0 hPa 16.1 km NW 5.6 km/h / 1.5 m/s - N/A   Clear
12:55 AM -18.0 °C -24.5 °C -22.0 °C 72% 1028.3 hPa 16.1 km WNW 9.3 km/h / 2.6 m/s - N/A   Clear
1:15 AM -18.0 °C -22.4 °C -22.0 °C 72% 1028.7 hPa 16.1 km WNW 5.6 km/h / 1.5 m/s - N/A   Clear
1:35 AM -18.0 °C -25.2 °C -22.0 °C 72% 1029.0 hPa 16.1 km WNW 11.1 km/h / 3.1 m/s - N/A   Clear
1:55 AM -18.0 °C -25.2 °C -22.0 °C 72% 1029.3 hPa 16.1 km WNW 11.1 km/h / 3.1 m/s - N/A   Clear
2:15 AM -18.0 °C -22.4 °C -22.0 °C 72% 1029.3 hPa 16.1 km NW 5.6 km/h / 1.5 m/s - N/A   Clear
2:35 AM -18.0 °C -24.5 °C -22.0 °C 72% 1029.7 hPa 16.1 km NW 9.3 km/h / 2.6 m/s - N/A   Clear
2:55 AM -18.0 °C -24.5 °C -22.0 °C 72% 1029.7 hPa 16.1 km NW 9.3 km/h / 2.6 m/s - N/A   Clear
3:15 AM -18.0 °C -23.5 °C -22.0 °C 72% 1029.7 hPa 16.1 km NW 7.4 km/h / 2.1 m/s - N/A   Clear
3:35 AM -19.0 °C -23.5 °C -22.0 °C 78% 1029.7 hPa 16.1 km NW 5.6 km/h / 1.5 m/s - N/A   Clear
3:55 AM -19.0 °C -23.5 °C -22.0 °C 78% 1029.7 hPa 16.1 km NNW 5.6 km/h / 1.5 m/s - N/A   Clear
4:15 AM -20.0 °C -25.9 °C -22.0 °C 85% 1030.0 hPa 16.1 km WNW 7.4 km/h / 2.1 m/s - N/A   Clear
4:35 AM -20.0 °C -25.9 °C -22.0 °C 85% 1030.0 hPa 16.1 km NW 7.4 km/h / 2.1 m/s - N/A   Clear
5:15 AM -20.0 °C -24.7 °C -22.0 °C 85% 1030.4 hPa 16.1 km NW 5.6 km/h / 1.5 m/s - N/A   Clear
5:35 AM -21.0 °C - -23.0 °C 84% 1030.7 hPa 16.1 km Calm Calm - N/A   Clear
5:55 AM -21.0 °C -25.8 °C -23.0 °C 84% 1031.0 hPa 16.1 km WNW 5.6 km/h / 1.5 m/s - N/A   Clear
6:15 AM -22.0 °C - -23.0 °C 92% 1031.0 hPa 16.1 km Calm Calm - N/A   Clear
6:35 AM -21.0 °C - -23.0 °C 84% 1031.0 hPa 16.1 km Calm Calm - N/A   Clear
6:55 AM -23.0 °C - -25.0 °C 84% 1031.0 hPa 16.1 km Calm Calm - N/A   Clear
7:15 AM -23.0 °C - -26.0 °C 77% 1031.0 hPa 16.1 km Calm Calm - N/A   Clear
7:55 AM -23.0 °C - -26.0 °C 77% 1031.7 hPa 16.1 km Calm Calm - N/A   Scattered Clouds
8:15 AM -22.0 °C - -25.0 °C 77% 1031.7 hPa 16.1 km Calm Calm - N/A   Mostly Cloudy
8:35 AM -20.0 °C -24.7 °C -22.0 °C 85% 1031.7 hPa 16.1 km West 5.6 km/h / 1.5 m/s - N/A   Overcast
8:55 AM -19.0 °C -23.5 °C -22.0 °C 78% 1031.7 hPa 16.1 km North 5.6 km/h / 1.5 m/s - N/A   Overcast
9:15 AM -18.0 °C -22.4 °C -22.0 °C 72% 1031.7 hPa 16.1 km NNW 5.6 km/h / 1.5 m/s - N/A   Overcast
9:35 AM -18.0 °C -22.4 °C -21.0 °C 78% 1031.7 hPa 16.1 km NW 5.6 km/h / 1.5 m/s - N/A   Mostly Cloudy
9:55 AM -17.0 °C - -21.0 °C 72% 1031.4 hPa 16.1 km Calm Calm - N/A   Scattered Clouds
10:15 AM -16.0 °C - -21.0 °C 66% 1031.4 hPa 16.1 km Calm Calm - N/A   Clear
10:35 AM -15.0 °C - -20.0 °C 66% 1031.4 hPa 16.1 km Calm Calm - N/A   Clear
10:55 AM -15.0 °C - -20.0 °C 66% 1031.4 hPa 16.1 km Calm Calm - N/A   Clear
11:15 AM -14.0 °C -17.8 °C -19.0 °C 67% 1031.4 hPa 16.1 km SW 5.6 km/h / 1.5 m/s - N/A   Clear
11:35 AM -13.0 °C -18.5 °C -18.0 °C 67% 1031.4 hPa 16.1 km SW 9.3 km/h / 2.6 m/s - N/A   Clear
11:55 AM -13.0 °C -17.7 °C -18.0 °C 67% 1031.4 hPa 16.1 km WSW 7.4 km/h / 2.1 m/s - N/A   Clear
12:15 PM -12.0 °C -15.5 °C -18.0 °C 62% 1031.4 hPa 16.1 km WSW 5.6 km/h / 1.5 m/s - N/A   Clear
12:35 PM -12.0 °C -16.5 °C -18.0 °C 62% 1031.0 hPa 16.1 km WSW 7.4 km/h / 2.1 m/s - N/A   Clear
12:55 PM -11.0 °C -15.4 °C -17.0 °C 62% 1031.0 hPa 16.1 km West 7.4 km/h / 2.1 m/s - N/A   Clear
1:15 PM -11.0 °C -15.4 °C -17.0 °C 62% 1031.0 hPa 16.1 km WSW 7.4 km/h / 2.1 m/s - N/A   Clear
1:35 PM -10.0 °C -15.6 °C -17.0 °C 57% 1031.4 hPa 16.1 km WSW 11.1 km/h / 3.1 m/s - N/A   Clear
1:55 PM -10.0 °C -14.2 °C -17.0 °C 57% 1031.4 hPa 16.1 km WNW 7.4 km/h / 2.1 m/s - N/A   Clear
2:15 PM -10.0 °C -15.0 °C -16.0 °C 62% 1031.4 hPa 16.1 km West 9.3 km/h / 2.6 m/s - N/A   Clear
2:35 PM -10.0 °C -14.2 °C -16.0 °C 62% 1031.7 hPa 16.1 km West 7.4 km/h / 2.1 m/s - N/A   Clear
2:55 PM -9.0 °C -13.0 °C -16.0 °C 58% 1031.7 hPa 16.1 km WNW 7.4 km/h / 2.1 m/s - N/A   Clear
3:15 PM -9.0 °C -12.1 °C -16.0 °C 58% 1031.4 hPa 16.1 km NNW 5.6 km/h / 1.5 m/s - N/A   Clear
3:35 PM -9.0 °C -13.0 °C -16.0 °C 58% 1031.4 hPa 16.1 km NNW 7.4 km/h / 2.1 m/s - N/A   Clear
3:55 PM -9.0 °C -13.0 °C -16.0 °C 58% 1031.0 hPa 16.1 km NW 7.4 km/h / 2.1 m/s - N/A   Clear
4:15 PM -9.0 °C -14.4 °C -16.0 °C 58% 1031.0 hPa 16.1 km North 11.1 km/h / 3.1 m/s - N/A   Clear
4:35 PM -9.0 °C -13.8 °C -16.0 °C 58% 1031.0 hPa 16.1 km North 9.3 km/h / 2.6 m/s - N/A   Clear
4:55 PM -9.0 °C -13.0 °C -16.0 °C 58% 1031.0 hPa 16.1 km North 7.4 km/h / 2.1 m/s - N/A   Clear
5:15 PM -10.0 °C -14.2 °C -16.0 °C 62% 1030.7 hPa 16.1 km North 7.4 km/h / 2.1 m/s - N/A   Clear
5:35 PM -10.0 °C -13.2 °C -16.0 °C 62% 1030.7 hPa 16.1 km North 5.6 km/h / 1.5 m/s - N/A   Clear
5:55 PM -10.0 °C - -16.0 °C 62% 1030.7 hPa 16.1 km Calm Calm - N/A   Clear
6:15 PM -11.0 °C - -16.0 °C 67% 1030.7 hPa 16.1 km Calm Calm - N/A   Clear
6:35 PM -11.0 °C - -16.0 °C 67% 1030.4 hPa 16.1 km Calm Calm - N/A   Clear
6:55 PM -12.0 °C - -16.0 °C 73% 1030.0 hPa 16.1 km Calm Calm - N/A   Clear
7:15 PM -12.0 °C -15.5 °C -16.0 °C 73% 1029.7 hPa 16.1 km NE 5.6 km/h / 1.5 m/s - N/A   Clear
7:35 PM -11.0 °C - -16.0 °C 67% 1029.7 hPa 16.1 km Calm Calm - N/A   Clear
7:55 PM -11.0 °C - -16.0 °C 67% 1029.3 hPa 16.1 km Calm Calm - N/A   Clear
8:15 PM -12.0 °C - -17.0 °C 67% 1029.3 hPa 16.1 km Calm Calm - N/A   Clear
8:35 PM -12.0 °C - -16.0 °C 73% 1029.3 hPa 16.1 km Calm Calm - N/A   Clear
8:55 PM -12.0 °C - -17.0 °C 67% 1029.3 hPa 16.1 km Calm Calm - N/A   Clear
9:15 PM -13.0 °C - -17.0 °C 73% 1029.3 hPa 16.1 km Calm Calm - N/A   Clear
9:35 PM -13.0 °C - -17.0 °C 73% 1029.3 hPa 16.1 km Calm Calm - N/A   Clear
9:55 PM -11.0 °C - -16.0 °C 67% 1029.7 hPa 16.1 km Calm Calm - N/A   Clear
10:15 PM -12.0 °C -17.3 °C -17.0 °C 67% 1029.7 hPa 16.1 km SW 9.3 km/h / 2.6 m/s - N/A   Clear
10:35 PM -13.0 °C - -17.0 °C 73% 1030.0 hPa 16.1 km Calm Calm - N/A   Clear
10:55 PM -15.0 °C -19.0 °C -18.0 °C 78% 1030.4 hPa 16.1 km SW 5.6 km/h / 1.5 m/s - N/A   Clear
11:15 PM -13.0 °C - -17.0 °C 73% 1030.7 hPa 16.1 km Calm Calm - N/A   Clear
11:35 PM -16.0 °C -20.1 °C -19.0 °C 78% 1030.7 hPa 16.1 km ENE 5.6 km/h / 1.5 m/s - N/A   Clear
11:55 PM -15.0 °C -20.9 °C -18.0 °C 78% 1030.0 hPa 16.1 km NE 9.3 km/h / 2.6 m/s - N/A   Clear